Location: Bogis-Bossey
(46.3500°N, 6.1667°E)
Time: 18:35:52
(UTC+00:00)

USA 238 DEB - Pass Details

Date: 27 February 2024
Orbit: 926 x 1285 km, 63.4° (Epoch: 21 April)

Event Time Altitude Azimuth Distance (km) Brightness Sun altitude
Exits shadow 05:00:05 19° 253° (WSW) 2,143 4.7 -14.5°
Maximum altitude 05:04:29 48° 320° (NW) 1,307 3.9 -13.7°
Drops below altitude 10° 05:11:08 10° 34° (NE) 2,937 6.5 -12.5°
Sets 05:14:02 0° 40° (NE) 3,954 7.3 -12.0°
